Sitka, AK

3:50 AM AKDT on June 26, 2017 (GMT -0800)
Sitka Rocky Gutierrez

Weather History for PASI - May, 2014

Change the Weather History Date:

Saturday, May 10, 2014

  Actual Average Record
Temperature  
Mean Temperature 50 °F -  
Max Temperature 52 °F 52 °F 69 °F (1975)
Min Temperature 48 °F 40 °F 34 °F (1977)
Degree Days  
Heating Degree Days 16    
Moisture  
Dew Point 44 °F    
Average Humidity 82    
Maximum Humidity 87    
Minimum Humidity 77    
Precipitation  
Precipitation 0.00 in - - ()
Sea Level Pressure  
Sea Level Pressure 30.15 in    
Wind  
Wind Speed 7 mph (West)    
Max Wind Speed 12 mph    
Max Gust Speed -    
Visibility 10 miles    
Events      
Averages and records for this station are not official NWS values.
T = Trace of Precipitation, MM = Missing Value Source: NWS Daily Summary

Daily Weather History Graph

Daily Weather History Graph

Search for Another Location

Airport or City:

Trip Planner

Search our weather history database for the weather conditions in past years. The results will help you decide how hot, cold, wet, or windy it might be!

Date:

Astronomy

May. 10, 2014 Rise Set
Actual Time 4:52 AM AKDT 9:04 PM AKDT
Civil Twilight 4:02 AM AKDT 9:55 PM AKDT
Nautical Twilight 2:45 AM AKDT 11:14 PM AKDT
Astronomical Twilight 1:30 AM AKDT 12:25 AM AKDT
Moon 4:19 PM AKDT (5/10) 3:23 AM AKDT (5/10)
Length of Visible Light 17h 53m
Length of Day
16h 12m
Waxing Gibbous, 83% of the Moon is Illuminated
May 10
Waxing Gibbous
May 14
Full
May 21
Last Quarter
May 28
New
Jun 5
First Quarter

Hourly Weather History & Observations

Time (AKDT) Temp. Dew Point Humidity Pressure Visibility Wind Dir Wind Speed Gust Speed Precip Events Conditions
12:53 AM 48.0 °F 44.1 °F 86% 30.01 in 10.0 mi North 4.6 mph - N/A   Scattered Clouds
1:53 AM 48.9 °F 44.1 °F 83% 30.02 in 10.0 mi North 4.6 mph - N/A   Overcast
2:53 AM 48.2 °F 44.6 °F 87% 30.04 in 10.0 mi NNW 9.2 mph - N/A   Overcast
3:53 AM 48.0 °F 44.1 °F 86% 30.06 in 10.0 mi NNW 10.4 mph - N/A   Overcast
4:53 AM 48.0 °F 44.1 °F 86% 30.08 in 10.0 mi NNW 8.1 mph - N/A   Overcast
5:53 AM 48.0 °F 44.1 °F 86% 30.09 in 10.0 mi NNE 3.5 mph - N/A   Overcast
6:53 AM 48.9 °F 44.1 °F 83% 30.10 in 10.0 mi NNW 4.6 mph - N/A   Mostly Cloudy
7:44 AM 48.9 °F 44.1 °F 83% 30.11 in 10.0 mi NW 5.8 mph - N/A   Overcast
7:51 AM 48.2 °F 44.6 °F 87% 30.11 in 10.0 mi NW 4.6 mph - N/A   Overcast
7:53 AM 48.0 °F 44.1 °F 86% 30.11 in 10.0 mi NW 4.6 mph - N/A   Overcast
8:53 AM 50.0 °F 44.1 °F 80% 30.13 in 10.0 mi NW 4.6 mph - N/A   Mostly Cloudy
9:53 AM 50.0 °F 44.1 °F 80% 30.14 in 10.0 mi NW 6.9 mph - N/A   Scattered Clouds
10:53 AM 51.1 °F 45.0 °F 80% 30.15 in 10.0 mi SW 9.2 mph - N/A   Mostly Cloudy
11:53 AM 51.1 °F 45.0 °F 80% 30.17 in 10.0 mi SW 11.5 mph - N/A   Mostly Cloudy
12:53 PM 51.1 °F 45.0 °F 80% 30.17 in 10.0 mi SW 10.4 mph - N/A   Mostly Cloudy
1:53 PM 51.1 °F 45.0 °F 80% 30.18 in 10.0 mi SW 11.5 mph - N/A   Overcast
2:53 PM 51.1 °F 44.1 °F 77% 30.19 in 10.0 mi WSW 9.2 mph - N/A   Mostly Cloudy
3:53 PM 51.1 °F 44.1 °F 77% 30.20 in 10.0 mi SW 9.2 mph - N/A   Mostly Cloudy
4:53 PM 51.1 °F 44.1 °F 77% 30.20 in 10.0 mi SW 10.4 mph - N/A   Mostly Cloudy
5:35 PM 50.0 °F 43.0 °F 77% 30.21 in 10.0 mi SW 10.4 mph - N/A   Overcast
5:53 PM 48.9 °F 43.0 °F 80% 30.21 in 10.0 mi WSW 6.9 mph - N/A   Overcast
6:53 PM 48.9 °F 43.0 °F 80% 30.22 in 10.0 mi SW 8.1 mph - N/A   Overcast
7:53 PM 48.9 °F 43.0 °F 80% 30.22 in 10.0 mi SW 6.9 mph - N/A   Overcast
8:53 PM 48.0 °F 42.1 °F 80% 30.23 in 10.0 mi SSW 4.6 mph - N/A   Overcast
9:53 PM 48.0 °F 42.1 °F 80% 30.23 in 10.0 mi Calm Calm - N/A   Overcast
10:53 PM 48.0 °F 42.1 °F 80% 30.23 in 10.0 mi WNW 3.5 mph - N/A   Overcast
11:53 PM 48.0 °F 42.1 °F 80% 30.23 in 10.0 mi West 4.6 mph - N/A   Overcast